ANZ174 NZAA-NZWN

Flight info

Callsign ANZ174
Flight time 0h 27m
Altitude 32000
Route AVNAR2Q IGBAT Y506 TPAPA TPAPA5A
Aircraft B77W/H-SDE1E2E3FGHIJ2J3J4J5M1RWXY/LB1D1

Departure

Time 2026-05-05 09:28
Airport Auckland International Airport (NZAA)

Arrival

Time 2026-05-05 09:55
Airport Wellington International Airport (NZWN)
Time Latitude Longitude Altitude Speed Heading
2026-05-05 09:16 -37.00727 174.78712 30 ft 0 kts 162°
2026-05-05 09:25 -37.00729 174.78713 30 ft 3 kts 162°
2026-05-05 09:25 -37.00847 174.78715 30 ft 35 kts 207°
2026-05-05 09:25 -37.00969 174.78411 30 ft 40 kts 253°
2026-05-05 09:26 -37.01057 174.78092 30 ft 38 kts 251°
2026-05-05 09:26 -37.01157 174.77792 30 ft 36 kts 229°
2026-05-05 09:26 -37.01302 174.77554 30 ft 34 kts 250°
2026-05-05 09:26 -37.01383 174.77278 30 ft 33 kts 249°
2026-05-05 09:27 -37.01487 174.77102 31 ft 23 kts 192°
2026-05-05 09:27 -37.01605 174.77135 31 ft 15 kts 100°
2026-05-05 09:27 -37.01523 174.77475 30 ft 83 kts 70°
2026-05-05 09:27 -37.01239 174.78495 29 ft 158 kts 71°
2026-05-05 09:28 -37.00819 174.79921 400 ft 175 kts 70°
2026-05-05 09:28 -37.00435 174.81314 1380 ft 166 kts 74°
2026-05-05 09:28 -37.00553 174.82771 2168 ft 183 kts 114°
2026-05-05 09:28 -37.01552 174.83976 2502 ft 225 kts 150°
2026-05-05 09:29 -37.03202 174.84286 2914 ft 256 kts 185°
2026-05-05 09:29 -37.04978 174.83804 3737 ft 267 kts 194°
2026-05-05 09:29 -37.06787 174.83140 4652 ft 274 kts 196°
2026-05-05 09:29 -37.08630 174.82438 5668 ft 278 kts 197°
2026-05-05 09:30 -37.10494 174.81734 6658 ft 283 kts 197°
2026-05-05 09:30 -37.12372 174.81037 7574 ft 287 kts 197°
2026-05-05 09:30 -37.14286 174.80340 8542 ft 290 kts 197°
2026-05-05 09:30 -37.16238 174.79640 9451 ft 295 kts 197°
2026-05-05 09:31 -37.18237 174.78932 10329 ft 302 kts 196°
2026-05-05 09:31 -37.20328 174.78196 10767 ft 326 kts 196°
2026-05-05 09:31 -37.22616 174.77396 10986 ft 356 kts 196°
2026-05-05 09:31 -37.25070 174.76542 11524 ft 374 kts 196°
2026-05-05 09:32 -37.27610 174.75661 12461 ft 382 kts 195°
2026-05-05 09:32 -37.31411 174.74346 14156 ft 389 kts 195°
2026-05-05 09:32 -37.41969 174.70688 18174 ft 412 kts 197°
2026-05-05 09:32 -37.53357 174.66729 21751 ft 434 kts 197°
2026-05-05 09:33 -37.65192 174.62606 25070 ft 450 kts 197°
2026-05-05 09:33 -37.77412 174.58330 27957 ft 461 kts 197°
2026-05-05 09:33 -37.89824 174.53974 30929 ft 463 kts 197°
2026-05-05 09:33 -38.02661 174.50367 32091 ft 479 kts 188°
2026-05-05 09:34 -38.15720 174.48690 32478 ft 464 kts 187°
2026-05-05 09:34 -38.40773 174.45216 32496 ft 456 kts 187°
2026-05-05 09:35 -38.66430 174.41618 32468 ft 464 kts 187°
2026-05-05 09:35 -39.04290 174.36261 32534 ft 467 kts 186°
2026-05-05 09:36 -39.29985 174.37369 32444 ft 454 kts 178°
2026-05-05 09:36 -39.55362 174.38827 32532 ft 468 kts 178°
2026-05-05 09:37 -39.81004 174.40317 32417 ft 452 kts 178°
2026-05-05 09:37 -40.05952 174.41774 32468 ft 449 kts 178°
2026-05-05 09:38 -40.30848 174.43241 32463 ft 447 kts 177°
2026-05-05 09:38 -40.40394 174.43806 32439 ft 450 kts 177°
2026-05-05 09:39 -40.43490 174.43990 32012 ft 454 kts 177°
2026-05-05 09:39 -40.46608 174.44175 30961 ft 444 kts 177°
2026-05-05 09:39 -40.49447 174.44343 29720 ft 437 kts 177°
2026-05-05 09:39 -40.52461 174.44523 28372 ft 429 kts 177°
2026-05-05 09:40 -40.55421 174.44699 27083 ft 422 kts 177°
2026-05-05 09:40 -40.58322 174.44873 25858 ft 415 kts 177°
2026-05-05 09:40 -40.61190 174.45044 24681 ft 409 kts 177°
2026-05-05 09:40 -40.64010 174.45212 23448 ft 404 kts 177°
2026-05-05 09:41 -40.66766 174.45376 22150 ft 399 kts 177°
2026-05-05 09:41 -40.69523 174.45541 20884 ft 394 kts 177°
2026-05-05 09:41 -40.72231 174.45787 19671 ft 388 kts 173°
2026-05-05 09:41 -40.74897 174.46231 18472 ft 383 kts 171°
2026-05-05 09:42 -40.77518 174.46739 17177 ft 379 kts 171°
2026-05-05 09:42 -40.80110 174.47247 15990 ft 373 kts 171°
2026-05-05 09:42 -40.82562 174.47712 16053 ft 353 kts 172°
2026-05-05 09:42 -40.85036 174.48169 16074 ft 363 kts 172°
2026-05-05 09:43 -40.87531 174.48622 15688 ft 362 kts 172°
2026-05-05 09:43 -40.89989 174.49063 14773 ft 359 kts 172°
2026-05-05 09:43 -40.92464 174.49505 13771 ft 357 kts 172°
2026-05-05 09:43 -40.94972 174.49951 13383 ft 371 kts 172°
2026-05-05 09:44 -40.97579 174.50416 12879 ft 385 kts 172°
2026-05-05 09:44 -41.00201 174.50885 12103 ft 381 kts 172°
2026-05-05 09:44 -41.02757 174.51340 11524 ft 361 kts 172°
2026-05-05 09:44 -41.05159 174.51767 11167 ft 333 kts 172°
2026-05-05 09:45 -41.07339 174.52154 10998 ft 304 kts 172°
2026-05-05 09:45 -41.09376 174.52557 10668 ft 286 kts 170°
2026-05-05 09:45 -41.11289 174.52974 10401 ft 284 kts 170°
2026-05-05 09:45 -41.13303 174.53416 10114 ft 302 kts 170°
2026-05-05 09:46 -41.15398 174.53870 9751 ft 306 kts 170°
2026-05-05 09:46 -41.17503 174.54323 9407 ft 306 kts 170°
2026-05-05 09:46 -41.19599 174.54772 9066 ft 305 kts 171°
2026-05-05 09:46 -41.21683 174.55220 8730 ft 304 kts 171°
2026-05-05 09:47 -41.23769 174.55669 8402 ft 303 kts 171°
2026-05-05 09:47 -41.25847 174.56116 8081 ft 302 kts 171°
2026-05-05 09:47 -41.27896 174.56558 7756 ft 302 kts 171°
2026-05-05 09:47 -41.29944 174.57070 7422 ft 299 kts 163°
2026-05-05 09:48 -41.31878 174.58072 7114 ft 298 kts 155°
2026-05-05 09:48 -41.33747 174.59241 6787 ft 297 kts 154°
2026-05-05 09:48 -41.35629 174.60400 6452 ft 298 kts 155°
2026-05-05 09:48 -41.37516 174.61521 6166 ft 295 kts 156°
2026-05-05 09:49 -41.39386 174.62614 5895 ft 293 kts 156°
2026-05-05 09:49 -41.41253 174.63701 5607 ft 291 kts 156°
2026-05-05 09:49 -41.43063 174.64753 5463 ft 284 kts 157°
2026-05-05 09:49 -41.44851 174.65794 5091 ft 280 kts 157°
2026-05-05 09:50 -41.49126 174.69415 3370 ft 269 kts 111°
2026-05-05 09:50 -41.49575 174.71766 3146 ft 257 kts 90°
2026-05-05 09:50 -41.49681 174.74113 2976 ft 249 kts 87°
2026-05-05 09:50 -41.49668 174.76319 2934 ft 224 kts 68°
2026-05-05 09:51 -41.49000 174.78019 2963 ft 199 kts 36°
2026-05-05 09:51 -41.47925 174.79132 2853 ft 197 kts 21°
2026-05-05 09:51 -41.46679 174.79769 2493 ft 187 kts
2026-05-05 09:51 -41.45423 174.79901 2326 ft 177 kts 355°
2026-05-05 09:52 -41.44221 174.79975 2083 ft 173 kts 356°
2026-05-05 09:52 -41.43027 174.80034 1827 ft 171 kts 358°
2026-05-05 09:52 -41.41865 174.80105 1644 ft 161 kts 358°
2026-05-05 09:52 -41.40803 174.80170 1406 ft 145 kts 360°
2026-05-05 09:53 -41.39846 174.80225 1230 ft 129 kts
2026-05-05 09:53 -41.38986 174.80279 1118 ft 119 kts
2026-05-05 09:53 -41.38165 174.80332 1073 ft 120 kts
2026-05-05 09:53 -41.37336 174.80388 1062 ft 119 kts
2026-05-05 09:54 -41.36507 174.80433 914 ft 121 kts
2026-05-05 09:54 -41.35641 174.80442 536 ft 120 kts
2026-05-05 09:54 -41.34817 174.80543 360 ft 119 kts
2026-05-05 09:54 -41.33967 174.80568 213 ft 121 kts
2026-05-05 09:55 -41.33122 174.80661 34 ft 121 kts
2026-05-05 09:55 -41.32404 174.80710 40 ft 79 kts
2026-05-05 09:55 -41.32019 174.80735 48 ft 41 kts
2026-05-05 09:55 -41.31904 174.80781 52 ft 16 kts 64°
2026-05-05 09:56 -41.31974 174.80865 50 ft 29 kts 179°
2026-05-05 09:56 -41.32194 174.80850 46 ft 33 kts 183°
2026-05-05 09:56 -41.32423 174.80836 38 ft 33 kts 182°
2026-05-05 09:56 -41.32608 174.80824 33 ft 14 kts 184°
2026-05-05 09:57 -41.32702 174.80833 31 ft 8 kts 140°
2026-05-05 09:57 -41.32712 174.80909 31 ft 10 kts 110°
2026-05-05 09:57 -41.32748 174.80956 31 ft 7 kts 139°
2026-05-05 09:57 -41.32754 174.80963 31 ft 1 kts 139°
2026-05-05 09:58 -41.32759 174.80968 31 ft 0 kts 139°